Zurück zum Katalog

FENGYUN 1C DEB

AktivSSO
NORAD 30895·DEBRIS·🇨🇳 China

Gestartet May 10, 1999 von Taiyuan Satellite Launch Center

Loading…

Nächste Überflüge (nächste 24 Stunden)

TLE

AktuellSource: Space-Track

Epoche: Sep 14, 2026, 10:21 UTC

1 30895U 99025AYH 26257.43180762  .00000451  00000-0  14450-3 0  9990
2 30895  98.6901 331.8924 0216191  33.7760  23.5546 14.32080044 17320

Verfolge FENGYUN 1C DEB in Echtzeit mit AllMySat

Download on the App Store